TimeICT,TemperatureF,Dew PointF,Humidity,Sea Level PressureIn,VisibilityMPH,Wind Direction,Wind SpeedMPH,Gust SpeedMPH,PrecipitationIn,Events,Conditions,WindDirDegrees,DateUTC
12:00 AM,75.2,75.2,100,29.92,3.1,Calm,Calm,-,N/A,,Overcast,0,2012-10-01 17:00:00
1:00 AM,75,74,95,29.91,4,Calm,Calm,,,,Mist,,2012-10-01 18:00:00
1:00 AM,75.2,75.2,100,29.89,2.5,Calm,Calm,-,N/A,,Mostly Cloudy,0,2012-10-01 18:00:00
3:00 AM,73.4,73.4,100,29.89,3.1,Calm,Calm,-,N/A,,Overcast,0,2012-10-01 20:00:00
4:00 AM,73.4,73.4,100,29.89,2.5,Calm,Calm,-,N/A,,Mostly Cloudy,0,2012-10-01 21:00:00
6:00 AM,73.4,73.4,100,29.89,3.1,WSW,3.5,-,N/A,,Mostly Cloudy,240,2012-10-01 23:00:00
7:00 AM,75,74,95,29.91,4,Calm,Calm,,,,Mist,,2012-10-02 00:00:00
7:00 AM,73.4,73.4,100,29.92,2.5,SSW,3.5,-,N/A,,Mostly Cloudy,210,2012-10-02 00:00:00
8:00 AM,77.0,75.2,94,29.92,3.1,SW,5.8,-,N/A,,Mostly Cloudy,220,2012-10-02 01:00:00
9:00 AM,80.6,77.0,89,29.95,3.7,SW,3.5,-,N/A,,Mostly Cloudy,220,2012-10-02 02:00:00
10:00 AM,82.4,77.0,84,29.95,5.0,West,3.5,-,N/A,,Mostly Cloudy,260,2012-10-02 03:00:00
11:00 AM,87.8,77.0,70,29.92,6.2,SW,3.5,-,N/A,,Mostly Cloudy,220,2012-10-02 04:00:00
12:00 PM,89.6,75.2,62,29.89,6.2,NW,4.6,-,N/A,,Mostly Cloudy,310,2012-10-02 05:00:00
1:00 PM,90,75,54,29.89,6,NNW,4.6,,,,Scattered Clouds,330,2012-10-02 06:00:00
1:00 PM,89.6,75.2,62,29.89,6.2,NW,6.9,-,N/A,,Mostly Cloudy,320,2012-10-02 06:00:00
2:00 PM,89.6,75.2,62,29.86,6.2,NNE,6.9,-,N/A,,Mostly Cloudy,20,2012-10-02 07:00:00
4:00 PM,89.6,75.2,62,29.80,5.0,SW,5.8,-,N/A,,Mostly Cloudy,220,2012-10-02 09:00:00
5:00 PM,87.8,78.8,75,29.80,5.0,South,4.6,-,N/A,,Mostly Cloudy,190,2012-10-02 10:00:00
6:00 PM,82.4,77.0,84,29.83,5.0,West,6.9,-,N/A,,Mostly Cloudy,260,2012-10-02 11:00:00
7:00 PM,83,76,74,29.85,5,Calm,Calm,,,,Mist,,2012-10-02 12:00:00
7:00 PM,84.2,75.2,74,29.83,5.0,NNW,3.5,-,N/A,,Scattered Clouds,330,2012-10-02 12:00:00
8:00 PM,82.4,75.2,79,29.86,5.0,NW,3.5,-,N/A,,Scattered Clouds,320,2012-10-02 13:00:00
9:00 PM,78.8,77.0,94,29.89,5.0,West,3.5,-,N/A,,Scattered Clouds,260,2012-10-02 14:00:00